Lincoln Laboratory Near-Earth Asteroid Research project
軌道要素
Epoch 2002 July 25.0 TT = JDT 2452480.5
T 2002 July 7.50635 TT MPC
q 2.8502574 (2000.0) P Q
n 0.13240949 Peri. 358.11234 -0.99932557 -0.03671258
a 3.8123255 Node 179.77926 +0.03576233 -0.97778805
e 0.2523573 Incl. 11.52073 +0.00833433 -0.20635579
P 7.44